When you browse on this site, cookies collect data to enhance your experience and personalize the content and advertising you see.
Visit our Privacy Policy to learn more. By continuing to use the site, you agree to this use of cookies and data.
  • en France
  • Liste des pays
  • À 7 jours
  • Température de l'eau
  • Carte satellitaire
  • Carte météo
  • Widgets météo
  • user-avatar
    Se connecter

    Météo par heure à Durrёs

    Ce jour, 26 Avril, Vendredi

    Heure Température Précipitation Vent Pression Humidité
    00:00 +18°C° 0 mm 1 m/s 764 mmHg 68%
    01:00 +18°C° 0 mm 1 m/s 764 mmHg 67%
    02:00 +17°C° 0 mm 2 m/s 764 mmHg 65%
    03:00 +17°C° 0 mm 2 m/s 764 mmHg 63%
    04:00 +17°C° 0 mm 2 m/s 764 mmHg 62%
    05:00 +19°C° 0 mm 2 m/s 763 mmHg 59%
    06:00 +20°C° 0 mm 2 m/s 763 mmHg 57%
    07:00 +23°C° 0 mm 1 m/s 763 mmHg 54%
    08:00 +25°C° 0 mm 1 m/s 763 mmHg 49%
    09:00 +26°C° 0 mm 1 m/s 763 mmHg 45%
    10:00 +28°C° 0 mm 1 m/s 763 mmHg 40%
    11:00 +28°C° 0 mm 2 m/s 762 mmHg 42%
    12:00 +28°C° 0 mm 2 m/s 762 mmHg 43%
    13:00 +29°C° 0 mm 3 m/s 762 mmHg 44%
    14:00 +28°C° 0 mm 3 m/s 761 mmHg 47%
    15:00 +27°C° 0 mm 3 m/s 761 mmHg 49%
    16:00 +26°C° 0 mm 3 m/s 760 mmHg 51%
    17:00 +24°C° 0 mm 3 m/s 760 mmHg 55%
    18:00 +21°C° 0 mm 3 m/s 760 mmHg 59%
    19:00 +20°C° 0 mm 3 m/s 760 mmHg 63%
    20:00 +19°C° 0 mm 3 m/s 761 mmHg 64%
    21:00 +19°C° 0 mm 3 m/s 761 mmHg 65%
    22:00 +19°C° 0 mm 3 m/s 761 mmHg 65%
    23:00 +19°C° 0 mm 3 m/s 761 mmHg 66%

    Demain, 27 Avril, Samedi

    Heure Température Précipitation Vent Pression Humidité
    00:00 +18°C° 0 mm 3 m/s 761 mmHg 66%
    01:00 +18°C° 0 mm 3 m/s 760 mmHg 66%
    02:00 +18°C° 0 mm 3 m/s 760 mmHg 68%
    03:00 +17°C° 0 mm 3 m/s 760 mmHg 70%
    04:00 +17°C° 0 mm 3 m/s 760 mmHg 72%
    05:00 +18°C° 0.2 mm 3 m/s 760 mmHg 70%
    06:00 +19°C° 0.2 mm 2 m/s 760 mmHg 69%
    07:00 +19°C° 0.2 mm 2 m/s 760 mmHg 67%
    08:00 +20°C° 0.2 mm 2 m/s 760 mmHg 65%
    09:00 +21°C° 0.2 mm 3 m/s 760 mmHg 62%
    10:00 +22°C° 0.2 mm 3 m/s 760 mmHg 60%
    11:00 +22°C° 0.1 mm 3 m/s 760 mmHg 62%
    12:00 +22°C° 0.1 mm 4 m/s 759 mmHg 64%
    13:00 +22°C° 0.1 mm 4 m/s 759 mmHg 67%
    14:00 +21°C° 0 mm 4 m/s 759 mmHg 66%
    15:00 +21°C° 0 mm 5 m/s 759 mmHg 66%
    16:00 +21°C° 0 mm 5 m/s 759 mmHg 66%
    17:00 +19°C° 0 mm 4 m/s 759 mmHg 74%
    18:00 +17°C° 0 mm 3 m/s 759 mmHg 81%
    19:00 +16°C° 0 mm 3 m/s 760 mmHg 89%
    20:00 +14°C° 0 mm 3 m/s 760 mmHg 90%
    21:00 +14°C° 0 mm 3 m/s 761 mmHg 90%
    22:00 +13°C° 0 mm 3 m/s 761 mmHg 91%
    23:00 +13°C° 0 mm 3 m/s 761 mmHg 91%

    Après-demain, 28 Avril, Dimanche

    Heure Température Précipitation Vent Pression Humidité
    00:00 +13°C° 0 mm 3 m/s 761 mmHg 90%
    01:00 +13°C° 0 mm 3 m/s 761 mmHg 90%
    02:00 +12°C° 0 mm 3 m/s 761 mmHg 90%
    03:00 +12°C° 0 mm 3 m/s 761 mmHg 90%
    04:00 +12°C° 0 mm 3 m/s 761 mmHg 90%
    05:00 +13°C° 0 mm 3 m/s 761 mmHg 85%
    06:00 +14°C° 0 mm 3 m/s 761 mmHg 80%
    07:00 +16°C° 0 mm 2 m/s 761 mmHg 75%
    08:00 +17°C° 0 mm 2 m/s 761 mmHg 68%
    09:00 +18°C° 0 mm 3 m/s 761 mmHg 61%
    10:00 +19°C° 0 mm 3 m/s 761 mmHg 54%
    11:00 +20°C° 0 mm 3 m/s 760 mmHg 53%
    12:00 +20°C° 0 mm 3 m/s 760 mmHg 53%
    13:00 +20°C° 0 mm 4 m/s 760 mmHg 53%
    14:00 +20°C° 0 mm 4 m/s 759 mmHg 56%
    15:00 +19°C° 0 mm 4 m/s 759 mmHg 58%
    16:00 +19°C° 0 mm 3 m/s 759 mmHg 60%
    17:00 +17°C° 0 mm 3 m/s 759 mmHg 67%
    18:00 +16°C° 0 mm 2 m/s 759 mmHg 74%
    19:00 +14°C° 0 mm 1 m/s 759 mmHg 81%
    20:00 +14°C° 0 mm 1 m/s 759 mmHg 82%
    21:00 +13°C° 0 mm 2 m/s 759 mmHg 83%
    22:00 +13°C° 0 mm 2 m/s 760 mmHg 84%
    23:00 +13°C° 0 mm 2 m/s 760 mmHg 83%

    29 Avril, Lundi

    Heure Température Précipitation Vent Pression Humidité
    00:00 +13°C° 0 mm 2 m/s 759 mmHg 83%
    01:00 +12°C° 0 mm 2 m/s 759 mmHg 82%
    02:00 +11°C° 0 mm 3 m/s 759 mmHg 78%
    03:00 +11°C° 0 mm 3 m/s 759 mmHg 74%
    04:00 +11°C° 0 mm 3 m/s 759 mmHg 70%
    05:00 +12°C° 0 mm 3 m/s 759 mmHg 63%
    06:00 +14°C° 0 mm 3 m/s 759 mmHg 55%
    07:00 +16°C° 0 mm 3 m/s 759 mmHg 48%
    08:00 +18°C° 0 mm 3 m/s 759 mmHg 46%
    09:00 +19°C° 0 mm 3 m/s 759 mmHg 44%
    10:00 +21°C° 0 mm 2 m/s 759 mmHg 42%
    11:00 +21°C° 0 mm 3 m/s 759 mmHg 46%
    12:00 +21°C° 0 mm 4 m/s 759 mmHg 49%
    13:00 +22°C° 0 mm 5 m/s 758 mmHg 52%
    14:00 +21°C° 0 mm 4 m/s 758 mmHg 56%
    15:00 +20°C° 0 mm 4 m/s 758 mmHg 61%
    16:00 +19°C° 0 mm 3 m/s 758 mmHg 66%
    17:00 +18°C° 0 mm 3 m/s 758 mmHg 72%
    18:00 +16°C° 0 mm 3 m/s 758 mmHg 79%
    19:00 +14°C° 0 mm 3 m/s 759 mmHg 86%
    20:00 +13°C° 0 mm 3 m/s 759 mmHg 86%
    21:00 +14°C° 0 mm 2 m/s 759 mmHg 87%
    22:00 +14°C° 0 mm 2 m/s 760 mmHg 87%
    23:00 +13°C° 0.1 mm 2 m/s 759 mmHg 86%

    30 Avril, Mardi

    Heure Température Précipitation Vent Pression Humidité
    00:00 +13°C° 0.1 mm 2 m/s 759 mmHg 84%
    01:00 +13°C° 0.1 mm 1 m/s 759 mmHg 83%
    02:00 +13°C° 0.1 mm 1 m/s 759 mmHg 83%
    03:00 +13°C° 0.1 mm 1 m/s 759 mmHg 83%
    04:00 +12°C° 0.1 mm 2 m/s 759 mmHg 83%
    05:00 +14°C° 0.1 mm 2 m/s 759 mmHg 79%
    06:00 +15°C° 0.1 mm 2 m/s 759 mmHg 74%
    07:00 +16°C° 0.1 mm 2 m/s 759 mmHg 70%
    08:00 +16°C° 0.2 mm 2 m/s 759 mmHg 74%
    09:00 +16°C° 0.2 mm 2 m/s 759 mmHg 78%
    10:00 +16°C° 0.2 mm 2 m/s 759 mmHg 82%
    11:00 +16°C° 0 mm 2 m/s 759 mmHg 77%
    12:00 +17°C° 0 mm 3 m/s 758 mmHg 72%
    13:00 +18°C° 0 mm 3 m/s 758 mmHg 67%
    14:00 +18°C° 0 mm 3 m/s 758 mmHg 66%
    15:00 +18°C° 0 mm 4 m/s 758 mmHg 66%
    16:00 +19°C° 0 mm 4 m/s 758 mmHg 66%
    17:00 +17°C° 0 mm 4 m/s 758 mmHg 73%
    18:00 +14°C° 0 mm 4 m/s 758 mmHg 80%
    19:00 +12°C° 0 mm 3 m/s 758 mmHg 87%
    20:00 +12°C° 0 mm 3 m/s 758 mmHg 88%
    21:00 +12°C° 0 mm 2 m/s 759 mmHg 89%
    22:00 +12°C° 0 mm 1 m/s 759 mmHg 90%
    23:00 +12°C° 0 mm 1 m/s 759 mmHg 90%

    1 Mai, Mercredi

    Heure Température Précipitation Vent Pression Humidité
    00:00 +11°C° 0 mm 1 m/s 759 mmHg 90%
    01:00 +11°C° 0 mm 1 m/s 759 mmHg 90%
    02:00 +11°C° 0 mm 1 m/s 759 mmHg 88%
    03:00 +11°C° 0 mm 1 m/s 758 mmHg 86%
    04:00 +11°C° 0 mm 1 m/s 758 mmHg 84%
    05:00 +12°C° 0 mm 1 m/s 758 mmHg 79%
    06:00 +13°C° 0 mm 2 m/s 758 mmHg 74%
    07:00 +14°C° 0 mm 2 m/s 758 mmHg 69%
    08:00 +16°C° 0 mm 2 m/s 758 mmHg 65%
    09:00 +17°C° 0 mm 2 m/s 758 mmHg 60%
    10:00 +19°C° 0 mm 2 m/s 758 mmHg 55%
    11:00 +19°C° 0 mm 2 m/s 758 mmHg 56%
    12:00 +19°C° 0 mm 3 m/s 758 mmHg 57%
    13:00 +20°C° 0 mm 4 m/s 758 mmHg 58%
    14:00 +19°C° 0 mm 4 m/s 758 mmHg 59%
    15:00 +19°C° 0 mm 5 m/s 758 mmHg 61%
    16:00 +19°C° 0 mm 5 m/s 758 mmHg 62%
    17:00 +17°C° 0 mm 4 m/s 758 mmHg 69%
    18:00 +14°C° 0 mm 3 m/s 758 mmHg 76%
    19:00 +14°C° 0 mm 2 m/s 759 mmHg 82%
    20:00 +13°C° 0 mm 2 m/s 759 mmHg 83%
    21:00 +13°C° 0 mm 1 m/s 759 mmHg 85%
    22:00 +13°C° 0 mm 1 m/s 760 mmHg 86%
    23:00 +12°C° 0 mm 1 m/s 760 mmHg 86%
    Voir plus